SL-8 R/B

基本信息
目录编号:
10992
目录名称:
SL-8 R/B
国际标识:
1978-074B
轨道中心:
EARTH
物体状态:
在轨
发射日期:
1978-07-27 UTC
国别:
俄罗斯(独联体) (CIS)
轨道信息
数据来源: 国际轨道数据
星历时间: 2026-09-05T12:05:21+0800
半长轴: 7348.369km
偏心率: 0.0020184
轨道倾角: 82.930°
近地点辐角: 52.182°
升交点赤经: 284.504°
平近点角: 6.899°
近地点: 955.4km
远地点: 985.064km
周期: 104.483分钟
每日圈数: 13.78213
详细信息
发射场:
PKMTR
轨道高度:
LEO
数据来源:
AOE Integration Group
参考系:
TEME
时间系统:
UTC
历元类型:
SGP4
2D轨道图
3D轨道图
轨道高度分析图
轨道倾角分析图
轨道综合分析图
查看轨道综合分析图